Flag for U.S.A. Weather past 2 weeks in El Paso, Texas, U.S.A.

Now
58 °F

Mostly cloudy.


Feels Like: 56 °F
Forecast: 52 / 64 °F
Wind: 8 mph from Southwest

Location: El Paso International Airport

Current Time: Mar 3, 2015 at 12:57:10 AM

Latest Report: Mar 2, 2015 at 11:51 PM


Visibility: 10 mi

Pressure: 29.83 "Hg

Humidity: 60%

Dew point: 44 °F

Location of El PasoLocation

Historic Weather in El Paso — Graph

°F

El Paso temperature yesterday

Maximum temperature yesterday: 61 °F (at 9:51 PM)
Minimum temperature yesterday: 50 °F (at 11:51 AM)
Average temperature yesterday: 56 °F

Past Weeks' High & Low Weather Summary

 TemperatureHumidityPressure
High76 °F (Feb 19, 2:51 PM)87% (Mar 2, 5:51 PM)30.27 "Hg (Mar 2, 5:51 PM)
Low28 °F (Feb 28, 12:51 AM)9% (Mar 1, 2:51 PM)29.66 "Hg (Feb 21, 3:51 PM)
Average52 °F42%29.93 "Hg
* Reported Feb 15 10:51 PM — Mar 2 10:51 PM, El Paso, Weather by CustomWeather, © 2015

Note: Actual official high and low records may vary slightly from our data, if they occured in-between our weather recording intervals... More about our weather records

Advertising

El Paso weather history for previous 24 hours

 ConditionsComfort  
Time TempWeatherWind HumidityBarometerVisibility
10:51 PM
Mon, Mar 2
60 °FMostly cloudy.13 mph53%29.85 "Hg10 mi
9:51 PM61 °FPartly cloudy.9 mph54%29.84 "Hg10 mi
8:51 PM60 °FOvercast.10 mph60%29.85 "Hg10 mi
7:51 PM57 °FMostly cloudy.7 mph78%29.85 "Hg10 mi
6:51 PM55 °FOvercast.6 mph87%29.84 "Hg10 mi
5:51 PM55 °FLight rain. Overcast.7 mph87%29.85 "Hg10 mi
4:51 PM55 °FLight rain. Overcast.5 mph83%29.83 "Hg10 mi
3:51 PM53 °FLight rain. Overcast.3 mph77%29.86 "Hg5 mi
2:51 PM57 °FLight rain. Mostly cloudy.8 mph60%29.85 "Hg10 mi
1:51 PM55 °FLight rain. More clouds than sun.7 mph57%29.87 "Hg10 mi
12:51 PM53 °FMore clouds than sun.6 mph61%29.90 "Hg10 mi
11:51 AM50 °FLight rain. More clouds than sun.7 mph68%29.94 "Hg10 mi
10:51 AM52 °FLight rain. Overcast.8 mph59%29.96 "Hg10 mi
9:51 AM54 °FOvercast.9 mph47%29.96 "Hg10 mi
8:51 AM54 °FOvercast.9 mph43%29.97 "Hg10 mi
7:51 AM55 °FOvercast.3 mph42%29.93 "Hg10 mi
6:51 AM56 °FOvercast.15 mph40%29.91 "Hg10 mi
5:51 AM58 °FOvercast.6 mph38%29.87 "Hg10 mi
4:51 AM56 °FOvercast.No wind39%29.88 "Hg10 mi
3:51 AM56 °FPassing clouds.3 mph39%29.88 "Hg10 mi
2:51 AM54 °FPartly cloudy.6 mph43%29.90 "Hg10 mi
1:51 AM55 °FPassing clouds.5 mph42%29.93 "Hg10 mi
12:51 AM58 °FMostly cloudy.No wind35%29.93 "Hg10 mi
Weather by CustomWeather, © 2015

See weather overviewHow to use our weather pages